Time,TemperatureF,DewpointF,PressureIn,WindDirection,WindDirectionDegrees,WindSpeedMPH,WindSpeedGustMPH,Humidity,HourlyPrecipIn,Conditions,Clouds,dailyrainin,SolarRadiationWatts/m^2,SoftwareType,DateUTC
2013-10-13 00:02:00,-999.0,-99.9,-100.00,NNW,334,1.0,2.0,-999,-99.99,,,-99.99,0.000000,,2013-10-13 04:02:00,
2013-10-13 00:03:00,60.0,56.0,-100.00,NNW,346,0.0,1.0,88,0.00,,,0.00,0.000000,,2013-10-13 04:03:00,
2013-10-13 00:43:00,60.0,56.0,-100.00,NNW,346,0.0,1.0,88,0.00,,,0.00,0.000000,,2013-10-13 04:43:00,
2013-10-13 00:54:00,60.0,56.0,-100.00,NNW,346,0.0,1.0,88,0.00,,,0.00,0.000000,,2013-10-13 04:54:00,
2013-10-13 01:43:00,60.0,57.0,-100.00,SSW,197,1.0,2.0,91,0.00,,,0.00,0.000000,,2013-10-13 05:43:00,
2013-10-13 01:52:00,60.0,57.0,-100.00,SSW,197,1.0,2.0,91,0.00,,,0.00,0.000000,,2013-10-13 05:52:00,
2013-10-13 02:02:00,60.0,57.0,-100.00,SSW,197,1.0,2.0,91,0.00,,,0.00,0.000000,,2013-10-13 06:02:00,
2013-10-13 02:22:00,58.0,56.0,-100.00,NNE,25,2.0,3.0,92,0.00,,,0.00,0.000000,,2013-10-13 06:22:00,
2013-10-13 02:32:00,58.0,56.0,-100.00,NNE,25,2.0,3.0,92,0.00,,,0.00,0.000000,,2013-10-13 06:32:00,
2013-10-13 02:42:00,58.0,56.0,-100.00,NNE,25,2.0,3.0,92,0.00,,,0.00,0.000000,,2013-10-13 06:42:00,
2013-10-13 02:52:00,58.0,56.0,-100.00,NNE,25,2.0,3.0,92,0.00,,,0.00,0.000000,,2013-10-13 06:52:00,
2013-10-13 03:02:00,58.0,56.0,-100.00,NNE,25,2.0,3.0,92,0.00,,,0.00,0.000000,,2013-10-13 07:02:00,
2013-10-13 03:42:00,60.0,57.0,-100.00,NNE,29,3.0,4.0,90,0.00,,,0.00,0.000000,,2013-10-13 07:42:00,
2013-10-13 03:52:00,60.0,57.0,-100.00,NNE,29,3.0,4.0,90,0.00,,,0.00,0.000000,,2013-10-13 07:52:00,
2013-10-13 04:02:00,60.0,57.0,-100.00,NNE,29,3.0,4.0,90,0.00,,,0.00,0.000000,,2013-10-13 08:02:00,
2013-10-13 04:22:00,61.0,57.0,-100.00,NNE,24,3.0,6.0,86,0.00,,,0.00,0.000000,,2013-10-13 08:22:00,
2013-10-13 04:32:00,61.0,57.0,-100.00,NNE,24,3.0,6.0,86,0.00,,,0.00,0.000000,,2013-10-13 08:32:00,
2013-10-13 04:42:00,61.0,57.0,-100.00,NNE,24,3.0,6.0,86,0.00,,,0.00,0.000000,,2013-10-13 08:42:00,
2013-10-13 04:52:00,61.0,57.0,-100.00,NNE,24,3.0,6.0,86,0.00,,,0.00,0.000000,,2013-10-13 08:52:00,
2013-10-13 05:02:00,61.0,57.0,-100.00,NNE,24,3.0,6.0,86,0.00,,,0.00,0.000000,,2013-10-13 09:02:00,
2013-10-13 05:03:00,61.0,57.0,-100.00,NNE,14,5.0,6.0,86,0.00,,,0.00,0.000000,,2013-10-13 09:03:00,
2013-10-13 05:43:00,61.0,57.0,-100.00,NNE,14,5.0,6.0,86,0.00,,,0.00,0.000000,,2013-10-13 09:43:00,
2013-10-13 05:53:00,61.0,57.0,-100.00,NNE,14,5.0,6.0,86,0.00,,,0.00,0.000000,,2013-10-13 09:53:00,
2013-10-13 06:03:00,60.0,56.0,-100.00,NNE,24,4.0,6.0,87,0.00,,,0.00,0.000000,,2013-10-13 10:03:00,
2013-10-13 06:43:00,60.0,56.0,-100.00,NNE,24,4.0,6.0,87,0.00,,,0.00,0.000000,,2013-10-13 10:43:00,
2013-10-13 06:53:00,60.0,56.0,-100.00,NNE,24,4.0,6.0,87,0.00,,,0.00,0.000000,,2013-10-13 10:53:00,
2013-10-13 07:22:00,60.0,56.0,-100.00,North,7,5.0,6.0,88,0.00,,,0.00,0.000000,,2013-10-13 11:22:00,
2013-10-13 07:33:00,60.0,56.0,-100.00,North,7,5.0,6.0,88,0.00,,,0.00,0.000000,,2013-10-13 11:33:00,
2013-10-13 07:42:00,60.0,56.0,-100.00,North,7,5.0,6.0,88,0.00,,,0.00,0.000000,,2013-10-13 11:42:00,
2013-10-13 07:52:00,60.0,56.0,-100.00,North,7,5.0,6.0,88,0.00,,,0.00,0.000000,,2013-10-13 11:52:00,
2013-10-13 08:01:00,60.0,56.0,-100.00,North,7,5.0,6.0,88,0.00,,,0.00,0.000000,,2013-10-13 12:01:00,
2013-10-13 08:42:00,61.0,56.0,-100.00,NNE,13,4.0,6.0,85,0.00,,,0.00,11.000000,,2013-10-13 12:42:00,
2013-10-13 08:52:00,61.0,56.0,-100.00,NNE,13,4.0,6.0,85,0.00,,,0.00,11.000000,,2013-10-13 12:52:00,
2013-10-13 09:02:00,61.0,56.0,-100.00,NNE,13,4.0,6.0,85,0.00,,,0.00,11.000000,,2013-10-13 13:02:00,
2013-10-13 09:42:00,67.0,60.0,-100.00,NNE,15,7.0,10.0,78,0.00,,,0.00,193.000000,,2013-10-13 13:42:00,
2013-10-13 09:52:00,67.0,60.0,-100.00,NNE,15,7.0,10.0,78,0.00,,,0.00,193.000000,,2013-10-13 13:52:00,
2013-10-13 10:02:00,67.0,60.0,-100.00,NNE,15,7.0,10.0,78,0.00,,,0.00,193.000000,,2013-10-13 14:02:00,
2013-10-13 10:42:00,71.0,60.0,-100.00,NE,42,6.0,10.0,68,0.00,,,0.00,451.000000,,2013-10-13 14:42:00,
2013-10-13 10:52:00,71.0,60.0,-100.00,NE,42,6.0,10.0,68,0.00,,,0.00,451.000000,,2013-10-13 14:52:00,
2013-10-13 11:01:00,71.0,60.0,-100.00,NE,42,6.0,10.0,68,0.00,,,0.00,451.000000,,2013-10-13 15:01:00,
2013-10-13 11:03:00,77.0,62.0,-100.00,NE,48,4.0,7.0,59,0.00,,,0.00,630.000000,,2013-10-13 15:03:00,
2013-10-13 11:43:00,77.0,62.0,-100.00,NE,48,4.0,7.0,59,0.00,,,0.00,630.000000,,2013-10-13 15:43:00,
2013-10-13 11:54:00,77.0,62.0,-100.00,NE,48,4.0,7.0,59,0.00,,,0.00,630.000000,,2013-10-13 15:54:00,
2013-10-13 12:03:00,81.0,62.0,-100.00,North,11,4.0,9.0,52,0.00,,,0.00,845.000000,,2013-10-13 16:03:00,
2013-10-13 12:43:00,81.0,62.0,-100.00,North,11,4.0,9.0,52,0.00,,,0.00,845.000000,,2013-10-13 16:43:00,
2013-10-13 12:54:00,81.0,62.0,-100.00,North,11,4.0,9.0,52,0.00,,,0.00,845.000000,,2013-10-13 16:54:00,
2013-10-13 13:43:00,83.0,61.0,-100.00,NE,44,7.0,12.0,47,0.00,,,0.00,904.000000,,2013-10-13 17:43:00,
2013-10-13 13:53:00,83.0,61.0,-100.00,NE,44,7.0,12.0,47,0.00,,,0.00,904.000000,,2013-10-13 17:53:00,
2013-10-13 14:02:00,83.0,61.0,-100.00,NE,44,7.0,12.0,47,0.00,,,0.00,904.000000,,2013-10-13 18:02:00,
2013-10-13 14:42:00,84.0,58.0,-100.00,NE,46,6.0,12.0,42,0.00,,,0.00,962.000000,,2013-10-13 18:42:00,
2013-10-13 14:52:00,84.0,58.0,-100.00,NE,46,6.0,12.0,42,0.00,,,0.00,962.000000,,2013-10-13 18:52:00,
2013-10-13 15:02:00,84.0,58.0,-100.00,NE,46,6.0,12.0,42,0.00,,,0.00,962.000000,,2013-10-13 19:02:00,
2013-10-13 15:22:00,83.0,55.0,-100.00,NNE,28,7.0,11.0,38,0.00,,,0.00,742.000000,,2013-10-13 19:22:00,
2013-10-13 15:32:00,83.0,55.0,-100.00,NNE,28,7.0,11.0,38,0.00,,,0.00,742.000000,,2013-10-13 19:32:00,
2013-10-13 15:42:00,83.0,55.0,-100.00,NNE,28,7.0,11.0,38,0.00,,,0.00,742.000000,,2013-10-13 19:42:00,
2013-10-13 15:53:00,83.0,55.0,-100.00,NNE,28,7.0,11.0,38,0.00,,,0.00,742.000000,,2013-10-13 19:53:00,
2013-10-13 16:02:00,83.0,55.0,-100.00,NNE,28,7.0,11.0,38,0.00,,,0.00,742.000000,,2013-10-13 20:02:00,
2013-10-13 16:03:00,83.0,55.0,-100.00,North,10,4.0,12.0,39,0.00,,,0.00,669.000000,,2013-10-13 20:03:00,
2013-10-13 16:43:00,83.0,55.0,-100.00,North,10,4.0,12.0,39,0.00,,,0.00,669.000000,,2013-10-13 20:43:00,
2013-10-13 16:52:00,83.0,55.0,-100.00,North,10,4.0,12.0,39,0.00,,,0.00,669.000000,,2013-10-13 20:52:00,
2013-10-13 17:03:00,83.0,59.0,-100.00,ENE,60,8.0,11.0,45,0.00,,,0.00,564.000000,,2013-10-13 21:03:00,
2013-10-13 17:44:00,83.0,59.0,-100.00,ENE,60,8.0,11.0,45,0.00,,,0.00,564.000000,,2013-10-13 21:44:00,
2013-10-13 17:55:00,83.0,59.0,-100.00,ENE,60,8.0,11.0,45,0.00,,,0.00,564.000000,,2013-10-13 21:55:00,
2013-10-13 18:03:00,83.0,58.0,-100.00,NNE,23,7.0,10.0,42,0.00,,,0.00,206.000000,,2013-10-13 22:03:00,
2013-10-13 18:24:00,83.0,58.0,-100.00,NNE,23,7.0,10.0,42,0.00,,,0.00,206.000000,,2013-10-13 22:24:00,
2013-10-13 18:32:00,83.0,58.0,-100.00,NNE,23,7.0,10.0,42,0.00,,,0.00,206.000000,,2013-10-13 22:32:00,
2013-10-13 18:43:00,83.0,58.0,-100.00,NNE,23,7.0,10.0,42,0.00,,,0.00,206.000000,,2013-10-13 22:43:00,
2013-10-13 18:53:00,83.0,58.0,-100.00,NNE,23,7.0,10.0,42,0.00,,,0.00,206.000000,,2013-10-13 22:53:00,
2013-10-13 19:42:00,75.0,61.0,-100.00,NNE,30,3.0,10.0,62,0.00,,,0.00,75.000000,,2013-10-13 23:42:00,
2013-10-13 19:52:00,75.0,61.0,-100.00,NNE,30,3.0,10.0,62,0.00,,,0.00,75.000000,,2013-10-13 23:52:00,
2013-10-13 20:02:00,75.0,61.0,-100.00,NNE,30,3.0,10.0,62,0.00,,,0.00,75.000000,,2013-10-14 00:02:00,
2013-10-13 20:22:00,73.0,61.0,-100.00,ENE,67,5.0,10.0,67,0.00,,,0.00,0.000000,,2013-10-14 00:22:00,
2013-10-13 20:32:00,73.0,61.0,-100.00,ENE,67,5.0,10.0,67,0.00,,,0.00,0.000000,,2013-10-14 00:32:00,
2013-10-13 20:42:00,73.0,61.0,-100.00,ENE,67,5.0,10.0,67,0.00,,,0.00,0.000000,,2013-10-14 00:42:00,
2013-10-13 20:52:00,73.0,61.0,-100.00,ENE,67,5.0,10.0,67,0.00,,,0.00,0.000000,,2013-10-14 00:52:00,
2013-10-13 21:02:00,73.0,61.0,-100.00,ENE,67,5.0,10.0,67,0.00,,,0.00,0.000000,,2013-10-14 01:02:00,
2013-10-13 21:42:00,72.0,62.0,-100.00,ENE,60,5.0,7.0,72,0.00,,,0.00,0.000000,,2013-10-14 01:42:00,
2013-10-13 21:52:00,72.0,62.0,-100.00,ENE,60,5.0,7.0,72,0.00,,,0.00,0.000000,,2013-10-14 01:52:00,
2013-10-13 22:02:00,72.0,62.0,-100.00,ENE,60,5.0,7.0,72,0.00,,,0.00,0.000000,,2013-10-14 02:02:00,
2013-10-13 22:03:00,72.0,63.0,-100.00,ENE,61,5.0,8.0,74,0.00,,,0.00,0.000000,,2013-10-14 02:03:00,
2013-10-13 22:42:00,72.0,63.0,-100.00,ENE,61,5.0,8.0,74,0.00,,,0.00,0.000000,,2013-10-14 02:42:00,
2013-10-13 22:52:00,72.0,63.0,-100.00,ENE,61,5.0,8.0,74,0.00,,,0.00,0.000000,,2013-10-14 02:52:00,
2013-10-13 23:03:00,69.0,63.0,-100.00,ENE,61,5.0,7.0,81,0.00,,,0.00,0.000000,,2013-10-14 03:03:00,
2013-10-13 23:44:00,69.0,63.0,-100.00,ENE,61,5.0,7.0,81,0.00,,,0.00,0.000000,,2013-10-14 03:44:00,
2013-10-13 23:55:00,69.0,63.0,-100.00,ENE,61,5.0,7.0,81,0.00,,,0.00,0.000000,,2013-10-14 03:55:00,